This is the latest recevied weather packets stored in our database for station/object IZ1UQG-1. If no packets are shown the sender has not sent any weather packets the latest 10 day(s).
| Time | Temp. | Humidity | Pressure | Rain* | Wind** | Luminosity | Snow |
|---|---|---|---|---|---|---|---|
| 1777959536 | 15° C | 69% | 1013 hPa | 116.33 mm | - | - | - |
| 1777959236 | 15° C | 68% | 1012.9 hPa | 136.65 mm | - | - | - |
| 1777958936 | 15° C | 67% | 1013.1 hPa | 105.92 mm | - | - | - |
| 1777958636 | 15.56° C | 67% | 1013 hPa | 121.67 mm | - | - | - |
| 1777958336 | 15.56° C | 67% | 1012.9 hPa | 71.88 mm | - | - | - |
| 1777958036 | 15.56° C | 66% | 1012.7 hPa | 138.68 mm | - | - | - |
| 1777957736 | 15.56° C | 66% | 1012.8 hPa | 121.67 mm | - | - | - |
| 1777957436 | 15.56° C | 65% | 1012.7 hPa | 157.73 mm | - | - | - |
| 1777957136 | 15.56° C | 65% | 1012.6 hPa | 26.67 mm | - | - | - |
| 1777956836 | 15.56° C | 64% | 1012.8 hPa | 143.76 mm | - | - | - |
| 1777956536 | 15.56° C | 64% | 1012.6 hPa | 103.89 mm | - | - | - |
| 1777956236 | 15.56° C | 63% | 1012.6 hPa | 152.15 mm | - | - | - |
| 1777955936 | 15.56° C | 63% | 1012.4 hPa | 86.36 mm | - | - | - |
| 1777955636 | 16.11° C | 62% | 1012.5 hPa | 118.36 mm | - | - | - |
| 1777955336 | 16.11° C | 62% | 1012.4 hPa | 101.85 mm | - | - | - |
| 1777955036 | 16.11° C | 62% | 1012.1 hPa | 83.82 mm | - | - | - |
| 1777954736 | 16.11° C | 61% | 1012.2 hPa | 151.13 mm | - | - | - |
| 1777954436 | 16.11° C | 61% | 1012.2 hPa | 127.76 mm | - | - | - |
| 1777954136 | 16.11° C | 61% | 1012.2 hPa | 104.39 mm | - | - | - |
| 1777953836 | 16.11° C | 61% | 1012.1 hPa | 72.9 mm | - | - | - |
| 1777953536 | 16.11° C | 61% | 1012 hPa | 10.67 mm | - | - | - |
| 1777953236 | 16.11° C | 60% | 1012.1 hPa | 118.36 mm | - | - | - |
| 1777952936 | 16.11° C | 60% | 1011.9 hPa | 117.86 mm | - | - | - |
| 1777952636 | 16.67° C | 59% | 1012.1 hPa | 85.34 mm | - | - | - |
| 1777952336 | 16.67° C | 59% | 1012 hPa | 77.47 mm | - | - | - |
* Rain latest hour (hover to see other rain measurements)
** Current wind speed in m/s (hover to see current wind gust speed)